Regional Weather Roundup
Issued by NWS

Home | Current Version | Previous Version | Graphics & Text | Print | Product List | Glossary On
Versions: 1 2 3 4 5 6 7 8 9 10 11 12 13 14 15 16 17 18 19 20 21 22 23 24 25 26 27 28 29 30 31 32 33 34 35 36 37 38 39 40 41 42 43 44 45 46 47 48 49 50
562
ASUS43 KLMK 242210
RWRKY
KENTUCKY REGIONAL WEATHER ROUNDUP
NATIONAL WEATHER SERVICE LOUISVILLE KY
600 PM EDT TUE APR 24 2018

NOTE "FAIR" INDICATES FEW OR NO CLOUDS BELOW 12,000 FEET
WITH NO SIGNIFICANT WEATHER AND/OR OBSTRUCTIONS TO VISIBILITY.

KYZ001>023-026-027-061>063-070>075-242300-
WESTERN AND SOUTH CENTRAL KENTUCKY

CITY           SKY/WX    TMP DP  RH WIND       PRES   REMARKS
PADUCAH        CLOUDY    64  55  72 NW10G21   29.94R
HENDERSON      NOT AVBL
OWENSBORO      LGT RAIN  57  53  86 N9        29.92S
HOPKINSVILLE   NOT AVBL
BOWLING GREEN  CLOUDY    60  55  83 N9G18     29.90R
GLASGOW        HVY RAIN  57  55  92 CALM      29.89R
$$

KYZ024-025-028>034-038-045-046-053-242300-
NORTH CENTRAL KENTUCKY

CITY           SKY/WX    TMP DP  RH WIND       PRES   REMARKS
LOUISVILLE/SDF LGT RAIN  58  55  90 NW8       29.89S
LOUISVILLE/LOU LGT RAIN  58  56  93 NW6       29.90S
FORT KNOX      CLOUDY    58  55  92 NW8       29.90S
$$

KYZ035>037-039>044-047>052-055>060-089>105-242300-
NORTHEAST KENTUCKY

CITY           SKY/WX    TMP DP  RH WIND       PRES   REMARKS
LEXINGTON      LGT RAIN  58  54  86 NW6       29.88S
COVINGTON      DRIZZLE   56  55  97 N7        29.89S FOG
FRANKFORT      CLOUDY    58  53  84 NW3       29.87S
$$

KYZ054-064>069-076>088-106>120-242300-
SOUTHEAST KENTUCKY

CITY           SKY/WX    TMP DP  RH WIND       PRES   REMARKS
JACKSON        CLOUDY    57  54  89 NW8       29.86R
LONDON         CLOUDY    63  53  70 N7        29.85R
SOMERSET       CLOUDY    61  50  67 N7        29.87R
MIDDLESBORO    LGT RAIN  63  55  76 CALM      29.84R
MONTICELLO     CLOUDY    61  56  83 W16       29.88R
$$





USA.gov is the U.S. government's official web portal to all federal, state and local government web resources and services.